Location: ????????
(55.6333°N, 37.7000°E)
Time: 14:26:20
(UTC+00:00)

NOSS 3-1 (A) - Pass Details

Date: 19 May 2025
Orbit: 639 x 1568 km, 63.4° (Epoch: 18 June)

Event Time Altitude Azimuth Distance (km) Brightness Sun altitude
Exits shadow 20:50:06 - 231° (SW) 3,106 5.9 -14.0°
Rises 20:50:10 0° 231° (SW) 3,080 5.8 -14.0°
Reaches altitude 10° 20:52:18 10° 232° (SW) 2,237 5.1 -14.1°
Maximum altitude 20:57:24 86° 320° (NW) 848 3.2 -14.2°
Drops below altitude 10° 21:03:47 10° 52° (NE) 2,780 6.3 -14.3°
Sets 21:06:43 0° 53° (NE) 3,887 7.1 -14.3°
